Location: Unspecified
(0.0000°N, 0.0000°E)
Time: 07:26:19
(UTC+00:00)

Vanguard 2 - Visible Passes

Search period start: 08 February 2023 00:00
Search period end: 18 February 2023 00:00
Orbit: 553 x 2930 km, 32.9° (Epoch: 07 February)

Date Brightness Start Highest point End Pass type
(mag) Time Alt. Az. Time Alt. Az. Time Alt. Az.
08 Feb 10.6 02:43:32 44° NNE 02:43:32 44° NNE 02:56:19 10° E visible
08 Feb 9.7 04:44:53 26° WNW 04:55:59 82° SW 05:06:50 10° SE visible
08 Feb 11.0 20:06:49 10° NW 20:12:04 15° N 20:17:31 11° NNE visible
09 Feb 11.8 00:58:15 11° ENE 00:58:15 11° ENE 00:58:34 10° ENE visible
09 Feb 10.3 02:59:36 55° NNE 03:00:38 56° NNE 03:14:01 10° ESE visible
09 Feb 9.8 05:00:56 21° WNW 05:12:54 64° SW 05:23:30 10° SE visible
09 Feb 11.2 20:26:28 10° NNW 20:30:18 12° N 20:33:21 11° N visible
10 Feb 11.6 01:14:18 17° ENE 01:14:18 17° ENE 01:17:34 10° E visible
10 Feb 10.1 03:15:39 64° N 03:17:57 70° NE 03:31:23 10° ESE visible
10 Feb 10.1 05:16:59 16° WNW 05:29:45 49° SW 05:39:58 10° SSE visible
10 Feb 10.5 18:30:03 10° NW 18:34:33 17° NNW 18:40:24 10° NNE visible
10 Feb 11.3 20:46:39 10° N 20:48:43 10° N 20:49:10 10° N visible
11 Feb 11.3 01:30:20 25° ENE 01:30:20 25° ENE 01:36:05 10° E visible
11 Feb 9.9 03:31:40 66° NW 03:35:06 86° NE 03:48:27 10° SE visible
11 Feb 10.4 05:33:00 11° W 05:46:37 37° SW 05:56:16 10° SSE visible
11 Feb 10.8 18:49:22 10° NNW 18:52:21 12° NNW 18:55:51 10° N visible
12 Feb 11.0 01:46:19 34° E 01:46:19 34° E 01:54:07 10° ESE visible
12 Feb 9.9 03:47:39 58° WNW 03:52:08 78° SW 04:05:18 10° SE visible
13 Feb 10.7 02:02:16 45° E 02:02:16 45° E 02:11:46 10° ESE visible
13 Feb 10.1 04:03:36 47° W 04:09:06 62° SW 04:21:55 10° SE visible
14 Feb 10.4 02:18:10 56° E 02:18:10 56° E 02:29:04 10° ESE visible
14 Feb 10.3 04:19:30 36° W 04:26:02 49° SW 04:38:23 10° SE visible
15 Feb 11.9 00:32:41 10° E 00:32:41 10° E 00:32:53 10° E visible
15 Feb 10.2 02:34:00 67° SE 02:34:00 67° SE 02:46:07 10° SE visible
15 Feb 10.6 04:35:21 27° W 04:43:04 38° SW 04:54:42 10° SSE visible
16 Feb 11.7 00:48:29 16° ESE 00:48:29 16° ESE 00:50:54 10° ESE visible
16 Feb 10.2 02:49:48 68° S 02:49:48 68° S 03:02:56 10° SE visible
16 Feb 10.8 04:51:07 18° WSW 05:00:13 29° SW 05:10:53 10° SSE visible
17 Feb 11.4 01:04:13 23° ESE 01:04:13 23° ESE 01:08:32 10° ESE visible
17 Feb 10.3 03:05:32 59° SSW 03:05:32 59° SSW 03:19:32 10° SE visible
17 Feb 11.0 05:06:51 11° WSW 05:17:36 23° SSW 05:26:57 10° SSE visible
